Location: Krasnoyarskiy Pitomnik
(51.1333°N, 71.6167°E)
Time: 10:24:04
(UTC+00:00)

Cosmos 2278 Rocket - Pass Details

Date: 22 October 2021
Orbit: 841 x 845 km, 71.0° (Epoch: 06 December)

Event Time Altitude Azimuth Distance (km) Brightness Sun altitude
Rises 16:33:56 0° 326° (NNW) 3,417 6.2 -40.6°
Reaches altitude 10° 16:36:28 10° 321° (NW) 2,477 5.3 -40.9°
Enters shadow 16:38:28 22° 312° (NW) 1,789 4.4 -41.1°
